Location: Pine Mountain Observatory
(43.7910°N, 120.9377°W)
Time: 23:16:08
(UTC-07:00)

Cosmos 1867 - Visible Passes

Search period start: 27 July 2014 00:00
Search period end: 06 August 2014 00:00
Orbit: 777 x 799 km, 65.0° (Epoch: 26 July)

Date Brightness Start Highest point End Pass type
(mag) Time Alt. Az. Time Alt. Az. Time Alt. Az.
27 Jul 4.1 02:04:22 46° ESE 02:04:24 46° ESE 02:09:36 10° NE visible
27 Jul 4.8 03:45:02 19° W 03:48:10 33° NW 03:53:05 10° NNE visible
28 Jul 4.6 01:33:36 33° E 01:33:36 33° E 01:37:48 10° NE visible
28 Jul 4.4 03:14:15 29° W 03:16:26 42° NW 03:21:37 10° NNE visible
28 Jul 5.9 04:59:26 10° NW 05:01:33 12° NNW 05:03:40 10° N visible
29 Jul 5.2 01:02:47 23° E 01:02:47 23° E 01:05:52 10° ENE visible
29 Jul 4.0 02:43:26 43° W 02:44:45 54° NW 02:50:07 10° NNE visible
29 Jul 5.9 04:26:42 10° WNW 04:29:36 14° NNW 04:32:31 10° N visible
30 Jul 5.6 00:31:56 16° E 00:31:56 16° E 00:33:45 10° ENE visible
30 Jul 3.6 02:12:35 66° W 02:13:06 71° NW 02:18:35 10° NNE visible
30 Jul 5.7 03:54:10 10° WNW 03:57:42 17° NNW 04:01:14 10° N visible
31 Jul 5.9 00:01:03 10° E 00:01:03 10° E 00:01:11 10° ENE visible
31 Jul 3.5 01:41:42 84° NE 01:41:42 84° NE 01:47:00 10° NE visible
31 Jul 5.5 03:22:21 12° W 03:25:50 21° NW 03:29:54 10° NNE visible
01 Aug 3.9 01:10:46 58° ENE 01:10:46 58° ENE 01:15:22 10° NE visible
01 Aug 5.3 02:51:25 18° W 02:54:01 25° NW 02:58:31 10° NNE visible
02 Aug 4.4 00:39:48 40° ENE 00:39:48 40° ENE 00:43:41 10° NE visible
02 Aug 5.0 02:20:26 26° WNW 02:22:14 31° NW 02:27:05 10° NNE visible
03 Aug 4.8 00:08:46 28° ENE 00:08:46 28° ENE 00:11:54 10° NE visible
03 Aug 4.6 01:49:25 36° WNW 01:50:30 39° NW 01:55:38 10° NNE visible
03 Aug 6.1 03:33:47 10° NW 03:35:40 12° NNW 03:37:34 10° N visible
03 Aug 5.2 23:37:42 21° ENE 23:37:42 21° ENE 23:40:00 10° NE visible
04 Aug 4.1 01:18:20 49° WNW 01:18:48 51° NW 01:24:08 10° NNE visible
04 Aug 6.1 03:00:59 10° WNW 03:03:43 14° NNW 03:06:28 10° N visible
04 Aug 5.5 23:06:34 15° ENE 23:06:34 15° ENE 23:07:56 10° ENE visible
05 Aug 3.8 00:47:11 66° NW 00:47:11 66° NW 00:52:37 10° NNE visible
05 Aug 6.0 02:28:25 10° WNW 02:31:48 16° NNW 02:35:13 10° N visible
05 Aug 5.8 22:35:21 10° ENE 22:35:21 10° ENE 22:35:31 10° ENE visible
